Regional Weather Roundup
Issued by NWS

Home | Current Version | Previous Version | Text Only | Print | Product List | Glossary Off
Versions: 1 2 3 4 5 6 7 8 9 10 11 12 13 14 15 16 17 18 19 20 21 22 23 24 25 26 27 28 29 30 31 32 33 34 35 36 37 38 39 40 41 42 43 44 45 46 47 48 49 50

891
ASUS43 KTOP 212108
RWRKS

WEATHER ROUNDUP FOR KANSAS
NATIONAL WEATHER SERVICE GOODLAND KS
400 PM CDT MON AUG 21 2017

NOTE:  "FAIR" INDICATES FEW OR NO CLOUDS BELOW 12,000 FEET WITH NO
SIGNIFICANT WEATHER AND/OR OBSTRUCTIONS TO VISIBILITY.

KSZ001>006-013>018-027>032-041>047-212200-
NORTHWEST KANSAS

CITY           SKY/WX    TMP DP  RH WIND       PRES   REMARKS
GOODLAND       MOSUNNY   85  60  42 CALM      29.99S
HAYS           MOSUNNY   90  65  43 SW28      29.94F
HILL CITY      CLOUDY    90  65  43 SW10G23   29.93F
RUSSELL        CLOUDY    89  64  43 SW20G31   29.93F
$$

KSZ061>065-074>080-084>089-212200-
SOUTHWEST KANSAS

CITY           SKY/WX    TMP DP  RH WIND       PRES   REMARKS
DODGE CITY     MOSUNNY   90  62  39 S26G36    29.99F
ELKHART          N/A     83  66  56 SW12        N/A
GARDEN CITY    SUNNY     88  66  48 SW18      29.99F
GREAT BEND     MOSUNNY   88  65  46 S23G32    29.96F
LIBERAL        PTSUNNY   82  68  62 S21       30.04F
PRATT          CLOUDY    86  66  50 SW15G22   30.00F
$$

KSZ066>073-081>083-090>101-212200-
SOUTHEAST KANSAS

CITY           SKY/WX    TMP DP  RH WIND       PRES   REMARKS
CHANUTE        SUNNY     90  77  65 S15       30.00F HX 103
COFFEYVILLE    SUNNY     90  77  65 S13       30.00F HX 103
HUTCHINSON     PTSUNNY   87  70  56 S12       29.98F
MEDICINE LODGE   N/A     85  71  63 S9        29.98F
NEWTON         MOSUNNY   89  71  55 SW16G23   29.99F HX  95
PARSONS        SUNNY     90  75  61 S9G20     30.02F HX 100
WICHITA INTL   PTSUNNY   95  70  44 S20       29.97F HX 101
WICHITA JABRA  CLOUDY    90  72  55 S15G26    29.97F HX  97
WICHITA MCCONL MOSUNNY   94  69  44 SW20G25   29.98F HX  99
WINFIELD       SUNNY     91  72  53 S15G24    29.99F HX  98
$$

KSZ007>012-019>026-033>040-048>060-102>105-212200-
NORTHEAST KANSAS

CITY           SKY/WX    TMP DP  RH WIND       PRES   REMARKS
CONCORDIA      MOSUNNY   84  72  67 S13       29.96F
EMPORIA        SUNNY     91  73  55 S22G30    29.96F HX  99
LAWRENCE       MOSUNNY   86  79  79 E6        29.96F HX  99
MANHATTAN      CLOUDY    92  75  57 SW8       29.94F HX 103
MARYSVILLE     CLOUDY    86  70  58 SW14      29.95F
OLATHE IND     MOSUNNY   89  76  65 S10G22    29.99F HX 100
OLATHE EXE     CLOUDY    86  77  74 S16       30.00F HX  97
SALINA         PTSUNNY   94  70  45 S20       29.94F HX 100
TOPEKA BILLARD MOSUNNY   90  76  63 S12G24    29.94F HX 101
TOPEKA FORBES  MOSUNNY   92  76  59 S16G24    29.95F HX 104
$$




USA.gov is the U.S. government's official web portal to all federal, state and local government web resources and services.